This is the latest recevied weather packets stored in our database for station/object NQ9F. If no packets are shown the sender has not sent any weather packets the latest 10 day(s).
| Time | Temp. | Humidity | Pressure | Rain* | Wind** | Luminosity | Snow |
|---|---|---|---|---|---|---|---|
| 1777675958 | 16.67° C | 67% | 1016.1 hPa | 0 mm | - | 124 W/m² | - |
| 1777675653 | 16.67° C | 67% | 1015.8 hPa | 0 mm | - | 126 W/m² | - |
| 1777675351 | 16.67° C | 67% | 1015.9 hPa | 0 mm | - | 129 W/m² | - |
| 1777675047 | 16.67° C | 67% | 1016.2 hPa | 0 mm | - | 126 W/m² | - |
| 1777674744 | 16.67° C | 67% | 1015.9 hPa | 0 mm | - | 143 W/m² | - |
| 1777674441 | 16.67° C | 63% | 1016.1 hPa | 0 mm | - | 166 W/m² | - |
| 1777674138 | 16.67° C | 67% | 1016.2 hPa | 0 mm | - | 167 W/m² | - |
| 1777673834 | 16.67° C | 64% | 1016 hPa | 0 mm | - | 182 W/m² | - |
| 1777673531 | 16.67° C | 64% | 1016 hPa | 0 mm | - | 212 W/m² | - |
| 1777673229 | 16.67° C | 67% | 1015.9 hPa | 0 mm | - | 229 W/m² | - |
| 1777672926 | 16.67° C | 64% | 1015.9 hPa | 0 mm | - | 240 W/m² | - |
| 1777672623 | 16.67° C | 65% | 1015.9 hPa | 0 mm | - | 230 W/m² | - |
| 1777672318 | 16.67° C | 67% | 1015.9 hPa | 0 mm | - | 219 W/m² | - |
| 1777672013 | 16.67° C | 66% | 1015.8 hPa | 0 mm | - | 219 W/m² | - |
| 1777671709 | 16.67° C | 66% | 1015.8 hPa | 0 mm | - | 220 W/m² | - |
| 1777671406 | 16.67° C | 66% | 1015.8 hPa | 0 mm | - | 246 W/m² | - |
| 1777671102 | 16.67° C | 67% | 1015.9 hPa | 0 mm | - | 256 W/m² | - |
| 1777670799 | 16.67° C | 65% | 1016 hPa | 0 mm | - | 264 W/m² | - |
| 1777670495 | 16.67° C | 67% | 1016.1 hPa | 0 mm | - | 267 W/m² | - |
| 1777670192 | 16.67° C | 66% | 1016.1 hPa | 0 mm | - | 289 W/m² | - |
| 1777669890 | 16.67° C | 68% | 1016.3 hPa | 0 mm | - | 261 W/m² | - |
| 1777669586 | 16.67° C | 68% | 1016.4 hPa | 0 mm | - | 222 W/m² | - |
| 1777669283 | 16.67° C | 67% | 1016.6 hPa | 0 mm | - | 202 W/m² | - |
| 1777668979 | 16.67° C | 67% | 1016.5 hPa | 0 mm | - | 220 W/m² | - |
| 1777668677 | 16.67° C | 65% | 1016.9 hPa | 0 mm | - | 210 W/m² | - |
* Rain latest hour (hover to see other rain measurements)
** Current wind speed in m/s (hover to see current wind gust speed)